Time,TemperatureF,DewpointF,PressureIn,WindDirection,WindDirectionDegrees,WindSpeedMPH,WindSpeedGustMPH,Humidity,HourlyPrecipIn,Conditions,Clouds,dailyrainin,SoftwareType,DateUTC
2013-08-19 00:00:00,61.9,56.3,30.22,West,266,0.0,0.0,82,0.00,CLR,CLR,0.00,WeatherDisplay:10.34,2013-08-19 04:00:00,
2013-08-19 00:01:00,61.9,56.3,30.22,West,266,0.0,0.0,82,0.00,CLR,CLR,0.00,WeatherDisplay:10.34,2013-08-19 04:01:00,
2013-08-19 00:02:00,61.9,56.3,30.22,West,266,0.0,0.0,82,0.00,CLR,CLR,0.00,WeatherDisplay:10.34,2013-08-19 04:02:00,
2013-08-19 00:07:00,61.5,55.6,30.22,West,266,0.0,0.0,81,0.00,CLR,CLR,0.00,WeatherDisplay:10.34,2013-08-19 04:07:00,
2013-08-19 00:08:00,61.5,55.6,30.22,West,266,0.0,0.0,81,0.00,CLR,CLR,0.00,WeatherDisplay:10.34,2013-08-19 04:08:00,
2013-08-19 00:13:00,61.3,55.8,30.22,West,266,0.0,2.0,82,0.00,CLR,CLR,0.00,WeatherDisplay:10.34,2013-08-19 04:13:00,
2013-08-19 00:17:00,61.3,55.8,30.22,West,266,0.0,0.0,82,0.00,CLR,CLR,0.00,WeatherDisplay:10.34,2013-08-19 04:17:00,
2013-08-19 00:22:00,61.3,55.8,30.22,West,261,3.0,6.0,82,0.00,CLR,CLR,0.00,WeatherDisplay:10.34,2013-08-19 04:22:00,
2013-08-19 00:27:00,61.3,55.8,30.22,West,261,0.0,0.0,82,0.00,CLR,CLR,0.00,WeatherDisplay:10.34,2013-08-19 04:27:00,
2013-08-19 00:32:00,61.3,55.8,30.22,West,261,0.0,0.0,82,0.00,CLR,CLR,0.00,WeatherDisplay:10.34,2013-08-19 04:32:00,
2013-08-19 00:37:00,61.3,55.8,30.22,West,261,0.0,0.0,82,0.00,CLR,CLR,0.00,WeatherDisplay:10.34,2013-08-19 04:37:00,
2013-08-19 00:42:00,61.3,55.8,30.22,West,261,0.0,0.0,82,0.00,CLR,CLR,0.00,WeatherDisplay:10.34,2013-08-19 04:42:00,
2013-08-19 00:47:00,61.3,55.8,30.22,West,261,0.0,0.0,82,0.00,CLR,CLR,0.00,WeatherDisplay:10.34,2013-08-19 04:47:00,
2013-08-19 00:52:00,61.3,55.8,30.22,West,261,0.0,0.0,82,0.00,CLR,CLR,0.00,WeatherDisplay:10.34,2013-08-19 04:52:00,
2013-08-19 00:57:00,61.3,55.8,30.22,West,261,0.0,0.0,82,0.00,CLR,CLR,0.00,WeatherDisplay:10.34,2013-08-19 04:57:00,
2013-08-19 01:02:00,61.3,55.8,30.22,West,261,0.0,0.0,82,0.00,CLR,CLR,0.00,WeatherDisplay:10.34,2013-08-19 05:02:00,
2013-08-19 01:07:00,61.5,56.0,30.22,West,261,0.0,0.0,82,0.00,CLR,CLR,0.00,WeatherDisplay:10.34,2013-08-19 05:07:00,
2013-08-19 01:12:00,61.5,56.0,30.22,West,262,0.0,0.0,82,0.00,CLR,CLR,0.00,WeatherDisplay:10.34,2013-08-19 05:12:00,
2013-08-19 01:17:00,61.3,55.8,30.22,West,261,0.0,0.0,82,0.00,CLR,CLR,0.00,WeatherDisplay:10.34,2013-08-19 05:17:00,
2013-08-19 01:22:00,61.2,55.6,30.22,West,262,0.0,3.0,82,0.00,CLR,CLR,0.00,WeatherDisplay:10.34,2013-08-19 05:22:00,
2013-08-19 01:27:00,61.0,55.4,30.22,West,268,0.0,2.0,82,0.00,CLR,CLR,0.00,WeatherDisplay:10.34,2013-08-19 05:27:00,
2013-08-19 01:32:00,61.2,55.6,30.22,West,268,0.0,0.0,82,0.00,CLR,CLR,0.00,WeatherDisplay:10.34,2013-08-19 05:32:00,
2013-08-19 01:37:00,61.2,56.0,30.19,West,280,0.0,2.0,83,0.00,CLR,CLR,0.00,WeatherDisplay:10.34,2013-08-19 05:37:00,
2013-08-19 01:42:00,61.3,56.1,30.19,WNW,286,0.0,3.0,83,0.00,CLR,CLR,0.00,WeatherDisplay:10.34,2013-08-19 05:42:00,
2013-08-19 01:47:00,61.5,56.3,30.19,WNW,285,0.0,3.0,83,0.00,CLR,CLR,0.00,WeatherDisplay:10.34,2013-08-19 05:47:00,
2013-08-19 01:52:00,61.7,56.5,30.19,WNW,302,0.0,0.0,83,0.00,CLR,CLR,0.00,WeatherDisplay:10.34,2013-08-19 05:52:00,
2013-08-19 01:57:00,61.7,56.5,30.19,WNW,300,0.0,3.0,83,0.00,CLR,CLR,0.00,WeatherDisplay:10.34,2013-08-19 05:57:00,
2013-08-19 02:02:00,61.7,56.1,30.19,West,259,0.0,6.0,82,0.00,CLR,CLR,0.00,WeatherDisplay:10.34,2013-08-19 06:02:00,
2013-08-19 02:07:00,61.7,56.1,30.19,West,259,0.0,3.0,82,0.00,CLR,CLR,0.00,WeatherDisplay:10.34,2013-08-19 06:07:00,
2013-08-19 02:12:00,61.7,56.1,30.19,West,260,0.0,3.0,82,0.00,CLR,CLR,0.00,WeatherDisplay:10.34,2013-08-19 06:12:00,
2013-08-19 02:17:00,61.9,56.0,30.19,West,260,0.0,3.0,81,0.00,CLR,CLR,0.00,WeatherDisplay:10.34,2013-08-19 06:17:00,
2013-08-19 02:22:00,61.9,56.0,30.19,WSW,237,0.0,3.0,81,0.00,CLR,CLR,0.00,WeatherDisplay:10.34,2013-08-19 06:22:00,
2013-08-19 02:27:00,61.9,55.6,30.19,West,277,4.0,6.0,80,0.00,CLR,CLR,0.00,WeatherDisplay:10.34,2013-08-19 06:27:00,
2013-08-19 02:32:00,61.9,55.6,30.19,West,277,0.0,3.0,80,0.00,CLR,CLR,0.00,WeatherDisplay:10.34,2013-08-19 06:32:00,
2013-08-19 02:37:00,61.7,55.1,30.19,WNW,302,0.0,0.0,79,0.00,CLR,CLR,0.00,WeatherDisplay:10.34,2013-08-19 06:37:00,
2013-08-19 02:42:00,61.7,54.8,30.19,WSW,250,0.0,0.0,78,0.00,CLR,CLR,0.00,WeatherDisplay:10.34,2013-08-19 06:42:00,
2013-08-19 02:47:00,61.7,54.8,30.19,West,270,3.0,3.0,78,0.00,CLR,CLR,0.00,WeatherDisplay:10.34,2013-08-19 06:47:00,
2013-08-19 02:52:00,61.9,54.6,30.19,West,270,0.0,3.0,77,0.00,CLR,CLR,0.00,WeatherDisplay:10.34,2013-08-19 06:52:00,
2013-08-19 02:57:00,61.7,54.4,30.19,West,271,0.0,0.0,77,0.00,CLR,CLR,0.00,WeatherDisplay:10.34,2013-08-19 06:57:00,
2013-08-19 03:02:00,61.7,54.4,30.19,West,271,3.0,3.0,77,0.00,CLR,CLR,0.00,WeatherDisplay:10.34,2013-08-19 07:02:00,
2013-08-19 03:07:00,61.5,54.2,30.19,West,275,0.0,0.0,77,0.00,CLR,CLR,0.00,WeatherDisplay:10.34,2013-08-19 07:07:00,
2013-08-19 03:12:00,61.3,54.1,30.19,West,275,0.0,0.0,77,0.00,CLR,CLR,0.00,WeatherDisplay:10.34,2013-08-19 07:12:00,
2013-08-19 03:17:00,61.0,53.7,30.19,West,267,0.0,0.0,77,0.00,CLR,CLR,0.00,WeatherDisplay:10.34,2013-08-19 07:17:00,
2013-08-19 03:22:00,61.0,53.7,30.19,West,267,0.0,3.0,77,0.00,CLR,CLR,0.00,WeatherDisplay:10.34,2013-08-19 07:22:00,
2013-08-19 03:27:00,61.0,54.1,30.19,West,267,0.0,0.0,78,0.00,CLR,CLR,0.00,WeatherDisplay:10.34,2013-08-19 07:27:00,
2013-08-19 03:32:00,60.8,53.9,30.19,West,264,0.0,0.0,78,0.00,CLR,CLR,0.00,WeatherDisplay:10.34,2013-08-19 07:32:00,
2013-08-19 03:37:00,60.8,54.2,30.19,West,263,0.0,2.0,79,0.00,CLR,CLR,0.00,WeatherDisplay:10.34,2013-08-19 07:37:00,
2013-08-19 03:42:00,60.6,54.1,30.19,West,263,0.0,0.0,79,0.00,CLR,CLR,0.00,WeatherDisplay:10.34,2013-08-19 07:42:00,
2013-08-19 03:47:00,60.6,54.1,30.19,West,263,0.0,0.0,79,0.00,CLR,CLR,0.00,WeatherDisplay:10.34,2013-08-19 07:47:00,
2013-08-19 03:52:00,60.6,54.1,30.19,West,264,0.0,0.0,79,0.00,CLR,CLR,0.00,WeatherDisplay:10.34,2013-08-19 07:52:00,
2013-08-19 03:57:00,60.4,53.9,30.19,West,263,0.0,0.0,79,0.00,CLR,CLR,0.00,WeatherDisplay:10.34,2013-08-19 07:57:00,
2013-08-19 04:02:00,60.4,54.2,30.19,North,0,0.0,0.0,80,0.00,CLR,CLR,0.00,WeatherDisplay:10.34,2013-08-19 08:02:00,
2013-08-19 04:07:00,60.4,54.2,30.19,North,0,0.0,0.0,80,0.00,CLR,CLR,0.00,WeatherDisplay:10.34,2013-08-19 08:07:00,
2013-08-19 04:12:00,60.4,54.2,30.19,North,0,0.0,0.0,80,0.00,CLR,CLR,0.00,WeatherDisplay:10.34,2013-08-19 08:12:00,
2013-08-19 04:17:00,60.3,54.1,30.16,North,0,0.0,0.0,80,0.00,CLR,CLR,0.00,WeatherDisplay:10.34,2013-08-19 08:17:00,
2013-08-19 04:22:00,60.1,53.9,30.16,North,0,0.0,0.0,80,0.00,CLR,CLR,0.00,WeatherDisplay:10.34,2013-08-19 08:22:00,
2013-08-19 04:27:00,60.1,53.9,30.16,North,1,0.0,0.0,80,0.00,CLR,CLR,0.00,WeatherDisplay:10.34,2013-08-19 08:27:00,
2013-08-19 04:32:00,59.9,53.7,30.16,North,2,0.0,0.0,80,0.00,CLR,CLR,0.00,WeatherDisplay:10.34,2013-08-19 08:32:00,
2013-08-19 04:37:00,59.7,53.9,30.16,North,1,0.0,0.0,81,0.00,CLR,CLR,0.00,WeatherDisplay:10.34,2013-08-19 08:37:00,
2013-08-19 04:42:00,59.5,54.0,30.16,North,2,0.0,0.0,82,0.00,CLR,CLR,0.00,WeatherDisplay:10.34,2013-08-19 08:42:00,
2013-08-19 04:47:00,59.4,53.9,30.16,North,1,0.0,0.0,82,0.00,CLR,CLR,0.00,WeatherDisplay:10.34,2013-08-19 08:47:00,
2013-08-19 04:52:00,59.2,54.0,30.16,North,1,0.0,0.0,83,0.00,CLR,CLR,0.00,WeatherDisplay:10.34,2013-08-19 08:52:00,
2013-08-19 04:57:00,59.2,54.0,30.16,North,1,0.0,0.0,83,0.00,CLR,CLR,0.00,WeatherDisplay:10.34,2013-08-19 08:57:00,
2013-08-19 05:02:00,59.0,54.2,30.16,North,1,0.0,0.0,84,0.00,CLR,CLR,0.00,WeatherDisplay:10.34,2013-08-19 09:02:00,
2013-08-19 05:07:00,58.8,54.0,30.16,North,1,0.0,0.0,84,0.00,CLR,CLR,0.00,WeatherDisplay:10.34,2013-08-19 09:07:00,
2013-08-19 05:12:00,58.8,54.0,30.16,NW,325,0.0,0.0,84,0.00,CLR,CLR,0.00,WeatherDisplay:10.34,2013-08-19 09:12:00,
2013-08-19 05:17:00,58.6,53.8,30.16,NW,325,0.0,0.0,84,0.00,CLR,CLR,0.00,WeatherDisplay:10.34,2013-08-19 09:17:00,
2013-08-19 05:22:00,58.5,53.6,30.16,NW,325,0.0,0.0,84,0.00,CLR,CLR,0.00,WeatherDisplay:10.34,2013-08-19 09:22:00,
2013-08-19 05:27:00,58.5,53.6,30.16,NW,325,0.0,0.0,84,0.00,CLR,CLR,0.00,WeatherDisplay:10.34,2013-08-19 09:27:00,
2013-08-19 05:32:00,58.5,53.6,30.16,NW,325,0.0,0.0,84,0.00,CLR,CLR,0.00,WeatherDisplay:10.34,2013-08-19 09:32:00,
2013-08-19 05:37:00,58.3,53.5,30.16,NW,325,0.0,0.0,84,0.00,CLR,CLR,0.00,WeatherDisplay:10.34,2013-08-19 09:37:00,
2013-08-19 05:42:00,58.1,53.3,30.16,NW,325,0.0,0.0,84,0.00,CLR,CLR,0.00,WeatherDisplay:10.34,2013-08-19 09:42:00,
2013-08-19 05:47:00,58.1,53.3,30.16,NW,325,0.0,0.0,84,0.00,CLR,CLR,0.00,WeatherDisplay:10.34,2013-08-19 09:47:00,
2013-08-19 05:52:00,58.1,53.6,30.19,NW,325,0.0,0.0,85,0.00,CLR,CLR,0.00,WeatherDisplay:10.34,2013-08-19 09:52:00,
2013-08-19 05:57:00,58.1,53.6,30.19,West,281,0.0,3.0,85,0.00,CLR,CLR,0.00,WeatherDisplay:10.34,2013-08-19 09:57:00,
2013-08-19 06:02:00,58.1,53.9,30.16,West,281,0.0,0.0,86,0.00,CLR,CLR,0.00,WeatherDisplay:10.34,2013-08-19 10:02:00,
2013-08-19 06:07:00,58.1,53.9,30.16,West,281,0.0,0.0,86,0.00,CLR,CLR,0.00,WeatherDisplay:10.34,2013-08-19 10:07:00,
2013-08-19 06:12:00,58.1,53.9,30.16,West,281,0.0,3.0,86,0.00,CLR,CLR,0.00,WeatherDisplay:10.34,2013-08-19 10:12:00,
2013-08-19 06:18:00,58.1,54.2,30.16,West,281,0.0,0.0,87,0.00,CLR,CLR,0.00,WeatherDisplay:10.34,2013-08-19 10:18:00,
2013-08-19 06:24:00,58.1,54.6,30.16,West,281,0.0,0.0,88,0.00,CLR,CLR,0.00,WeatherDisplay:10.34,2013-08-19 10:24:00,
2013-08-19 06:29:00,58.1,54.6,30.16,West,281,0.0,0.0,88,0.00,CLR,CLR,0.00,WeatherDisplay:10.34,2013-08-19 10:29:00,
2013-08-19 06:34:00,58.1,54.6,30.16,West,281,3.0,3.0,88,0.00,CLR,CLR,0.00,WeatherDisplay:10.34,2013-08-19 10:34:00,
2013-08-19 06:39:00,58.1,54.6,30.17,West,279,0.0,2.0,88,0.00,CLR,CLR,0.00,WeatherDisplay:10.34,2013-08-19 10:39:00,
2013-08-19 06:44:00,58.3,55.1,30.17,West,279,0.0,0.0,89,0.00,CLR,CLR,0.00,WeatherDisplay:10.34,2013-08-19 10:44:00,
2013-08-19 06:49:00,58.5,55.2,30.17,West,279,0.0,0.0,89,0.00,CLR,CLR,0.00,WeatherDisplay:10.34,2013-08-19 10:49:00,
2013-08-19 06:54:00,58.6,55.4,30.17,North,1,0.0,3.0,89,0.00,CLR,CLR,0.00,WeatherDisplay:10.34,2013-08-19 10:54:00,
2013-08-19 06:59:00,58.8,55.6,30.17,North,1,0.0,0.0,89,0.00,CLR,CLR,0.00,WeatherDisplay:10.34,2013-08-19 10:59:00,
2013-08-19 07:04:00,59.0,55.8,30.17,North,0,0.0,0.0,89,0.00,CLR,CLR,0.00,WeatherDisplay:10.34,2013-08-19 11:04:00,
2013-08-19 07:09:00,59.4,56.1,30.17,North,0,0.0,0.0,89,0.00,CLR,CLR,0.00,WeatherDisplay:10.34,2013-08-19 11:09:00,
2013-08-19 07:14:00,59.7,56.2,30.17,NNW,347,0.0,3.0,88,0.00,CLR,CLR,0.00,WeatherDisplay:10.34,2013-08-19 11:14:00,
2013-08-19 07:19:00,60.1,56.5,30.16,NNE,13,0.0,5.0,88,0.00,CLR,CLR,0.00,WeatherDisplay:10.34,2013-08-19 11:19:00,
2013-08-19 07:24:00,60.4,56.2,30.16,North,351,0.0,3.0,86,0.00,CLR,CLR,0.00,WeatherDisplay:10.34,2013-08-19 11:24:00,
2013-08-19 07:29:00,60.6,56.1,30.16,West,277,3.0,3.0,85,0.00,CLR,CLR,0.00,WeatherDisplay:10.34,2013-08-19 11:29:00,
2013-08-19 07:34:00,61.0,56.1,30.19,West,279,0.0,3.0,84,0.00,CLR,CLR,0.00,WeatherDisplay:10.34,2013-08-19 11:34:00,
2013-08-19 07:39:00,61.3,56.1,30.19,NNE,13,0.0,3.0,83,0.00,CLR,CLR,0.00,WeatherDisplay:10.34,2013-08-19 11:39:00,
2013-08-19 07:44:00,61.7,56.1,30.19,North,1,3.0,3.0,82,0.00,CLR,CLR,0.00,WeatherDisplay:10.34,2013-08-19 11:44:00,
2013-08-19 07:49:00,62.1,55.5,30.16,West,278,3.0,5.0,79,0.00,CLR,CLR,0.00,WeatherDisplay:10.34,2013-08-19 11:49:00,
2013-08-19 07:54:00,62.2,55.6,30.16,West,276,0.0,2.0,79,0.00,CLR,CLR,0.00,WeatherDisplay:10.34,2013-08-19 11:54:00,
2013-08-19 07:59:00,62.4,55.5,30.16,WNW,296,3.0,7.0,78,0.00,CLR,CLR,0.00,WeatherDisplay:10.34,2013-08-19 11:59:00,
2013-08-19 08:04:00,62.8,55.5,30.16,SW,233,3.0,5.0,77,0.00,CLR,CLR,0.00,WeatherDisplay:10.34,2013-08-19 12:04:00,
2013-08-19 08:09:00,63.0,55.3,30.16,WSW,251,3.0,6.0,76,0.00,CLR,CLR,0.00,WeatherDisplay:10.34,2013-08-19 12:09:00,
2013-08-19 08:14:00,63.3,54.5,30.16,NNW,330,0.0,6.0,73,0.00,CLR,CLR,0.00,WeatherDisplay:10.34,2013-08-19 12:14:00,
2013-08-19 08:19:00,63.7,54.5,30.16,NNE,29,0.0,0.0,72,0.00,CLR,CLR,0.00,WeatherDisplay:10.34,2013-08-19 12:19:00,
2013-08-19 08:24:00,63.9,53.9,30.16,NNE,14,0.0,0.0,70,0.00,CLR,CLR,0.00,WeatherDisplay:10.34,2013-08-19 12:24:00,
2013-08-19 08:29:00,64.0,53.3,30.16,NNE,32,0.0,3.0,68,0.00,CLR,CLR,0.00,WeatherDisplay:10.34,2013-08-19 12:29:00,
2013-08-19 08:34:00,64.2,53.4,30.16,West,263,3.0,6.0,68,0.00,CLR,CLR,0.00,WeatherDisplay:10.34,2013-08-19 12:34:00,
2013-08-19 08:39:00,64.4,53.6,30.16,WNW,295,0.0,6.0,68,0.00,CLR,CLR,0.00,WeatherDisplay:10.34,2013-08-19 12:39:00,
2013-08-19 08:44:00,64.6,53.4,30.16,WNW,285,3.0,6.0,67,0.00,CLR,CLR,0.00,WeatherDisplay:10.34,2013-08-19 12:44:00,
2013-08-19 08:49:00,64.8,53.1,30.16,NNE,23,3.0,3.0,66,0.00,CLR,CLR,0.00,WeatherDisplay:10.34,2013-08-19 12:49:00,
2013-08-19 08:54:00,64.9,52.9,30.16,North,8,4.0,5.0,65,0.00,CLR,CLR,0.00,WeatherDisplay:10.34,2013-08-19 12:54:00,
2013-08-19 08:59:00,65.1,53.1,30.16,WSW,244,4.0,7.0,65,0.00,CLR,CLR,0.00,WeatherDisplay:10.34,2013-08-19 12:59:00,
2013-08-19 09:04:00,65.3,52.4,30.16,WSW,240,3.0,3.0,63,0.00,CLR,CLR,0.00,WeatherDisplay:10.34,2013-08-19 13:04:00,
2013-08-19 09:09:00,65.5,52.5,30.16,NNE,12,4.0,5.0,63,0.00,CLR,CLR,0.00,WeatherDisplay:10.34,2013-08-19 13:09:00,
2013-08-19 09:14:00,65.5,52.5,30.16,North,3,5.0,7.0,63,0.00,CLR,CLR,0.00,WeatherDisplay:10.34,2013-08-19 13:14:00,
2013-08-19 09:19:00,65.7,52.3,30.16,NNW,347,0.0,6.0,62,0.00,CLR,CLR,0.00,WeatherDisplay:10.34,2013-08-19 13:19:00,
2013-08-19 09:24:00,65.8,52.9,30.16,West,279,4.0,5.0,63,0.00,CLR,CLR,0.00,WeatherDisplay:10.34,2013-08-19 13:24:00,
2013-08-19 09:29:00,66.0,52.6,30.16,North,8,3.0,5.0,62,0.00,CLR,CLR,0.00,WeatherDisplay:10.34,2013-08-19 13:29:00,
2013-08-19 09:34:00,66.2,52.3,30.16,NNE,13,4.0,6.0,61,0.00,CLR,CLR,0.00,WeatherDisplay:10.34,2013-08-19 13:34:00,
2013-08-19 09:39:00,66.4,52.1,30.16,NNE,23,4.0,6.0,60,0.00,CLR,CLR,0.00,WeatherDisplay:10.34,2013-08-19 13:39:00,
2013-08-19 09:44:00,66.6,52.7,30.16,NNE,12,3.0,5.0,61,0.00,CLR,CLR,0.00,WeatherDisplay:10.34,2013-08-19 13:44:00,
2013-08-19 09:49:00,66.7,52.9,30.16,WNW,283,3.0,7.0,61,0.00,CLR,CLR,0.00,WeatherDisplay:10.34,2013-08-19 13:49:00,
2013-08-19 09:54:00,66.7,53.3,30.16,SSW,192,6.0,9.0,62,0.00,CLR,CLR,0.00,WeatherDisplay:10.34,2013-08-19 13:54:00,
2013-08-19 09:59:00,66.9,53.0,30.16,SW,219,4.0,7.0,61,0.00,CLR,CLR,0.00,WeatherDisplay:10.34,2013-08-19 13:59:00,
2013-08-19 10:04:00,67.1,52.7,30.16,West,259,3.0,7.0,60,0.00,CLR,CLR,0.00,WeatherDisplay:10.34,2013-08-19 14:04:00,
2013-08-19 10:09:00,67.1,52.7,30.16,West,259,0.0,9.0,60,0.00,CLR,CLR,0.00,WeatherDisplay:10.34,2013-08-19 14:09:00,
2013-08-19 10:14:00,67.1,50.9,30.16,WSW,242,4.0,6.0,56,0.00,CLR,CLR,0.00,WeatherDisplay:10.34,2013-08-19 14:14:00,
2013-08-19 10:19:00,67.3,51.5,30.16,SSW,212,4.0,8.0,57,0.00,CLR,CLR,0.00,WeatherDisplay:10.34,2013-08-19 14:19:00,
2013-08-19 10:24:00,67.5,51.2,30.16,ESE,110,4.0,7.0,56,0.00,CLR,CLR,0.00,WeatherDisplay:10.34,2013-08-19 14:24:00,
2013-08-19 10:29:00,67.3,50.6,30.16,SW,226,3.0,6.0,55,0.00,CLR,CLR,0.00,WeatherDisplay:10.34,2013-08-19 14:29:00,
2013-08-19 10:34:00,67.5,51.2,30.16,NNE,23,3.0,7.0,56,0.00,CLR,CLR,0.00,WeatherDisplay:10.34,2013-08-19 14:34:00,
2013-08-19 10:39:00,67.6,52.3,30.16,North,5,3.0,6.0,58,0.00,CLR,CLR,0.00,WeatherDisplay:10.34,2013-08-19 14:39:00,
2013-08-19 10:44:00,67.8,52.0,30.16,NNE,21,5.0,6.0,57,0.00,CLR,CLR,0.00,WeatherDisplay:10.34,2013-08-19 14:44:00,
2013-08-19 10:49:00,67.8,51.5,30.16,NNE,12,3.0,6.0,56,0.00,CLR,CLR,0.00,WeatherDisplay:10.34,2013-08-19 14:49:00,
2013-08-19 10:54:00,68.0,51.2,30.16,North,3,0.0,7.0,55,0.00,CLR,CLR,0.00,WeatherDisplay:10.34,2013-08-19 14:54:00,
2013-08-19 10:59:00,68.2,50.9,30.16,NNE,15,4.0,6.0,54,0.00,CLR,CLR,0.00,WeatherDisplay:10.34,2013-08-19 14:59:00,
2013-08-19 11:04:00,68.2,50.9,30.16,SSW,204,6.0,8.0,54,0.00,CLR,CLR,0.00,WeatherDisplay:10.34,2013-08-19 15:04:00,
2013-08-19 11:09:00,68.9,52.1,30.16,WSW,244,5.0,9.0,55,0.00,CLR,CLR,0.00,WeatherDisplay:10.34,2013-08-19 15:09:00,
2013-08-19 11:14:00,69.8,51.9,30.16,North,2,4.0,12.0,53,0.00,CLR,CLR,0.00,WeatherDisplay:10.34,2013-08-19 15:14:00,
2013-08-19 11:19:00,70.0,50.5,30.16,North,4,4.0,7.0,50,0.00,CLR,CLR,0.00,WeatherDisplay:10.34,2013-08-19 15:19:00,
2013-08-19 11:24:00,70.5,49.9,30.16,West,278,7.0,9.0,48,0.00,CLR,CLR,0.00,WeatherDisplay:10.34,2013-08-19 15:24:00,
2013-08-19 11:29:00,70.7,50.0,30.16,WSW,245,5.0,9.0,48,0.00,CLR,CLR,0.00,WeatherDisplay:10.34,2013-08-19 15:29:00,
2013-08-19 11:34:00,70.9,50.2,30.13,West,279,4.0,6.0,48,0.00,CLR,CLR,0.00,WeatherDisplay:10.34,2013-08-19 15:34:00,
2013-08-19 11:39:00,70.9,50.2,30.13,SW,218,6.0,8.0,48,0.00,CLR,CLR,0.00,WeatherDisplay:10.34,2013-08-19 15:39:00,
2013-08-19 11:44:00,71.4,50.7,30.13,SSW,192,5.0,7.0,48,0.00,CLR,CLR,0.00,WeatherDisplay:10.34,2013-08-19 15:44:00,
2013-08-19 11:49:00,71.6,50.9,30.13,NW,318,5.0,9.0,48,0.00,CLR,CLR,0.00,WeatherDisplay:10.34,2013-08-19 15:49:00,
2013-08-19 11:54:00,71.8,50.5,30.13,SW,223,5.0,7.0,47,0.00,CLR,CLR,0.00,WeatherDisplay:10.34,2013-08-19 15:54:00,
2013-08-19 11:59:00,71.6,49.7,30.13,North,351,4.0,6.0,46,0.00,CLR,CLR,0.00,WeatherDisplay:10.34,2013-08-19 15:59:00,
2013-08-19 12:04:00,71.6,50.9,30.13,SE,134,4.0,6.0,48,0.00,CLR,CLR,0.00,WeatherDisplay:10.34,2013-08-19 16:04:00,
2013-08-19 12:09:00,72.1,50.2,30.13,SSW,200,6.0,8.0,46,0.00,CLR,CLR,0.00,WeatherDisplay:10.34,2013-08-19 16:09:00,
2013-08-19 12:14:00,72.3,49.2,30.13,WSW,238,6.0,9.0,44,0.00,CLR,CLR,0.00,WeatherDisplay:10.34,2013-08-19 16:14:00,
2013-08-19 12:20:00,72.3,49.8,30.13,ENE,58,3.0,9.0,45,0.00,CLR,CLR,0.00,WeatherDisplay:10.34,2013-08-19 16:20:00,
2013-08-19 12:25:00,72.3,49.8,30.13,NW,320,4.0,8.0,45,0.00,CLR,CLR,0.00,WeatherDisplay:10.34,2013-08-19 16:25:00,
2013-08-19 12:30:00,72.7,50.7,30.13,WNW,291,6.0,9.0,46,0.00,CLR,CLR,0.00,WeatherDisplay:10.34,2013-08-19 16:30:00,
2013-08-19 12:35:00,72.9,49.7,30.13,NNE,15,4.0,8.0,44,0.00,CLR,CLR,0.00,WeatherDisplay:10.34,2013-08-19 16:35:00,
2013-08-19 12:40:00,73.0,50.4,30.13,WSW,247,4.0,6.0,45,0.00,CLR,CLR,0.00,WeatherDisplay:10.34,2013-08-19 16:40:00,
2013-08-19 12:45:00,73.0,50.4,30.13,North,351,4.0,7.0,45,0.00,CLR,CLR,0.00,WeatherDisplay:10.34,2013-08-19 16:45:00,
2013-08-19 12:50:00,72.9,50.3,30.13,WNW,300,5.0,8.0,45,0.00,CLR,CLR,0.00,WeatherDisplay:10.34,2013-08-19 16:50:00,
2013-08-19 12:55:00,73.0,49.8,30.13,WSW,250,4.0,6.0,44,0.00,CLR,CLR,0.00,WeatherDisplay:10.34,2013-08-19 16:55:00,
2013-08-19 13:00:00,73.0,50.4,30.13,WSW,247,5.0,9.0,45,0.00,CLR,CLR,0.00,WeatherDisplay:10.34,2013-08-19 17:00:00,
2013-08-19 13:05:00,73.2,50.0,30.13,South,189,4.0,6.0,44,0.00,CLR,CLR,0.00,WeatherDisplay:10.34,2013-08-19 17:05:00,
2013-08-19 13:10:00,73.4,50.2,30.13,SSW,213,4.0,8.0,44,0.00,CLR,CLR,0.00,WeatherDisplay:10.34,2013-08-19 17:10:00,
2013-08-19 13:15:00,73.2,50.0,30.13,SW,235,3.0,7.0,44,0.00,CLR,CLR,0.00,WeatherDisplay:10.34,2013-08-19 17:15:00,
2013-08-19 13:20:00,73.4,50.2,30.09,NE,52,3.0,3.0,44,0.00,CLR,CLR,0.00,WeatherDisplay:10.34,2013-08-19 17:20:00,
2013-08-19 13:25:00,73.6,50.3,30.09,West,267,5.0,9.0,44,0.00,CLR,CLR,0.00,WeatherDisplay:10.34,2013-08-19 17:25:00,
2013-08-19 13:30:00,74.1,50.2,30.09,West,262,4.0,10.0,43,0.00,CLR,CLR,0.00,WeatherDisplay:10.34,2013-08-19 17:30:00,
2013-08-19 13:35:00,74.3,49.7,30.09,NNW,332,7.0,7.0,42,0.00,CLR,CLR,0.00,WeatherDisplay:10.34,2013-08-19 17:35:00,
2013-08-19 13:40:00,74.3,49.1,30.09,WNW,294,4.0,8.0,41,0.00,CLR,CLR,0.00,WeatherDisplay:10.34,2013-08-19 17:40:00,
2013-08-19 13:45:00,74.7,49.4,30.09,NE,43,6.0,9.0,41,0.00,CLR,CLR,0.00,WeatherDisplay:10.34,2013-08-19 17:45:00,
2013-08-19 13:50:00,74.7,49.4,30.09,SW,222,4.0,9.0,41,0.00,CLR,CLR,0.00,WeatherDisplay:10.34,2013-08-19 17:50:00,
2013-08-19 13:55:00,74.8,49.6,30.09,WSW,239,4.0,7.0,41,0.00,CLR,CLR,0.00,WeatherDisplay:10.34,2013-08-19 17:55:00,
2013-08-19 14:00:00,75.2,50.5,30.09,SW,232,4.0,5.0,42,0.00,CLR,CLR,0.00,WeatherDisplay:10.34,2013-08-19 18:00:00,
2013-08-19 14:05:00,75.4,50.0,30.09,WSW,251,6.0,9.0,41,0.00,CLR,CLR,0.00,WeatherDisplay:10.34,2013-08-19 18:05:00,
2013-08-19 14:10:00,75.4,50.0,30.09,NNE,30,4.0,5.0,41,0.00,CLR,CLR,0.00,WeatherDisplay:10.34,2013-08-19 18:10:00,
2013-08-19 14:15:00,75.6,50.2,30.09,SW,230,4.0,9.0,41,0.00,CLR,CLR,0.00,WeatherDisplay:10.34,2013-08-19 18:15:00,
2013-08-19 14:20:00,75.7,50.4,30.09,WSW,247,4.0,6.0,41,0.00,CLR,CLR,0.00,WeatherDisplay:10.34,2013-08-19 18:20:00,
2013-08-19 14:25:00,76.1,49.3,30.09,North,4,6.0,10.0,39,0.00,CLR,CLR,0.00,WeatherDisplay:10.34,2013-08-19 18:25:00,
2013-08-19 14:30:00,76.1,48.6,30.09,West,270,4.0,7.0,38,0.00,CLR,CLR,0.00,WeatherDisplay:10.34,2013-08-19 18:30:00,
2013-08-19 14:35:00,75.9,49.2,30.09,WSW,249,4.0,12.0,39,0.00,CLR,CLR,0.00,WeatherDisplay:10.34,2013-08-19 18:35:00,
2013-08-19 14:40:00,75.9,48.5,30.09,North,6,5.0,6.0,38,0.00,CLR,CLR,0.00,WeatherDisplay:10.34,2013-08-19 18:40:00,
2013-08-19 14:45:00,76.3,48.8,30.09,SW,232,5.0,9.0,38,0.00,CLR,CLR,0.00,WeatherDisplay:10.34,2013-08-19 18:45:00,
2013-08-19 14:50:00,76.6,48.4,30.09,NNE,13,3.0,5.0,37,0.00,CLR,CLR,0.00,WeatherDisplay:10.34,2013-08-19 18:50:00,
2013-08-19 14:55:00,76.6,47.7,30.09,West,263,4.0,6.0,36,0.00,CLR,CLR,0.00,WeatherDisplay:10.34,2013-08-19 18:55:00,
2013-08-19 15:00:00,76.5,48.2,30.09,NNE,26,4.0,6.0,37,0.00,CLR,CLR,0.00,WeatherDisplay:10.34,2013-08-19 19:00:00,
2013-08-19 15:05:00,76.5,46.8,30.09,NW,314,4.0,7.0,35,0.00,CLR,CLR,0.00,WeatherDisplay:10.34,2013-08-19 19:05:00,
2013-08-19 15:10:00,76.5,46.8,30.09,South,176,4.0,7.0,35,0.00,CLR,CLR,0.00,WeatherDisplay:10.34,2013-08-19 19:10:00,
2013-08-19 15:15:00,76.5,48.2,30.09,WSW,242,3.0,5.0,37,0.00,CLR,CLR,0.00,WeatherDisplay:10.34,2013-08-19 19:15:00,
2013-08-19 15:20:00,76.5,46.8,30.09,NNE,30,4.0,5.0,35,0.00,CLR,CLR,0.00,WeatherDisplay:10.34,2013-08-19 19:20:00,
2013-08-19 15:25:00,76.5,47.5,30.09,SW,216,5.0,7.0,36,0.00,CLR,CLR,0.00,WeatherDisplay:10.34,2013-08-19 19:25:00,
2013-08-19 15:30:00,76.5,46.8,30.09,NNE,13,4.0,5.0,35,0.00,CLR,CLR,0.00,WeatherDisplay:10.34,2013-08-19 19:30:00,
2013-08-19 15:35:00,76.5,46.8,30.09,NW,304,5.0,6.0,35,0.00,CLR,CLR,0.00,WeatherDisplay:10.34,2013-08-19 19:35:00,
2013-08-19 15:40:00,76.5,47.5,30.09,WSW,255,5.0,9.0,36,0.00,CLR,CLR,0.00,WeatherDisplay:10.34,2013-08-19 19:40:00,
2013-08-19 15:45:00,76.5,47.5,30.09,NNE,12,5.0,7.0,36,0.00,CLR,CLR,0.00,WeatherDisplay:10.34,2013-08-19 19:45:00,
2013-08-19 15:50:00,76.5,47.5,30.09,NNE,33,0.0,3.0,36,0.00,CLR,CLR,0.00,WeatherDisplay:10.34,2013-08-19 19:50:00,
2013-08-19 15:55:00,76.3,47.4,30.09,NNW,345,3.0,7.0,36,0.00,CLR,CLR,0.00,WeatherDisplay:10.34,2013-08-19 19:55:00,
2013-08-19 16:00:00,76.1,47.2,30.09,North,7,4.0,6.0,36,0.00,CLR,CLR,0.00,WeatherDisplay:10.34,2013-08-19 20:00:00,
2013-08-19 16:05:00,76.1,48.6,30.09,West,261,4.0,6.0,38,0.00,CLR,CLR,0.00,WeatherDisplay:10.34,2013-08-19 20:05:00,
2013-08-19 16:10:00,76.1,47.2,30.09,NNE,31,4.0,7.0,36,0.00,CLR,CLR,0.00,WeatherDisplay:10.34,2013-08-19 20:10:00,
2013-08-19 16:15:00,76.1,47.2,30.09,SW,225,4.0,6.0,36,0.00,CLR,CLR,0.00,WeatherDisplay:10.34,2013-08-19 20:15:00,
2013-08-19 16:20:00,76.1,47.2,30.09,North,6,3.0,8.0,36,0.00,CLR,CLR,0.00,WeatherDisplay:10.34,2013-08-19 20:20:00,
2013-08-19 16:25:00,76.1,47.2,30.09,SSW,200,3.0,10.0,36,0.00,CLR,CLR,0.00,WeatherDisplay:10.34,2013-08-19 20:25:00,
2013-08-19 16:30:00,76.3,47.4,30.09,NNW,347,3.0,7.0,36,0.00,CLR,CLR,0.00,WeatherDisplay:10.34,2013-08-19 20:30:00,
2013-08-19 16:35:00,76.3,48.1,30.09,NE,56,4.0,7.0,37,0.00,CLR,CLR,0.00,WeatherDisplay:10.34,2013-08-19 20:35:00,
2013-08-19 16:40:00,76.5,47.5,30.09,East,86,3.0,6.0,36,0.00,CLR,CLR,0.00,WeatherDisplay:10.34,2013-08-19 20:40:00,
2013-08-19 16:45:00,76.3,47.4,30.09,North,351,4.0,7.0,36,0.00,CLR,CLR,0.00,WeatherDisplay:10.34,2013-08-19 20:45:00,
2013-08-19 16:50:00,76.5,47.5,30.09,NNE,13,4.0,5.0,36,0.00,CLR,CLR,0.00,WeatherDisplay:10.34,2013-08-19 20:50:00,
2013-08-19 16:55:00,76.5,48.2,30.09,WSW,248,0.0,6.0,37,0.00,CLR,CLR,0.00,WeatherDisplay:10.34,2013-08-19 20:55:00,
2013-08-19 17:00:00,76.5,47.5,30.09,South,189,3.0,5.0,36,0.00,CLR,CLR,0.00,WeatherDisplay:10.34,2013-08-19 21:00:00,
2013-08-19 17:05:00,76.5,48.2,30.09,North,6,3.0,6.0,37,0.00,CLR,CLR,0.00,WeatherDisplay:10.34,2013-08-19 21:05:00,
2013-08-19 17:10:00,76.5,48.2,30.09,SSE,164,3.0,5.0,37,0.00,CLR,CLR,0.00,WeatherDisplay:10.34,2013-08-19 21:10:00,
2013-08-19 17:15:00,76.5,46.8,30.09,North,7,5.0,8.0,35,0.00,CLR,CLR,0.00,WeatherDisplay:10.34,2013-08-19 21:15:00,
2013-08-19 17:20:00,76.5,46.8,30.09,North,351,6.0,7.0,35,0.00,CLR,CLR,0.00,WeatherDisplay:10.34,2013-08-19 21:20:00,
2013-08-19 17:25:00,76.5,47.5,30.09,NNW,347,3.0,3.0,36,0.00,CLR,CLR,0.00,WeatherDisplay:10.34,2013-08-19 21:25:00,
2013-08-19 17:30:00,76.5,49.7,30.09,NNW,328,3.0,7.0,39,0.00,CLR,CLR,0.00,WeatherDisplay:10.34,2013-08-19 21:30:00,
2013-08-19 17:35:00,76.5,49.0,30.09,North,3,5.0,7.0,38,0.00,CLR,CLR,0.00,WeatherDisplay:10.34,2013-08-19 21:35:00,
2013-08-19 17:40:00,76.3,49.5,30.09,NNE,26,0.0,3.0,39,0.00,CLR,CLR,0.00,WeatherDisplay:10.34,2013-08-19 21:40:00,
2013-08-19 17:45:00,75.9,50.5,30.09,North,10,4.0,9.0,41,0.00,CLR,CLR,0.00,WeatherDisplay:10.34,2013-08-19 21:45:00,
2013-08-19 17:50:00,75.7,51.0,30.10,North,1,4.0,5.0,42,0.00,CLR,CLR,0.00,WeatherDisplay:10.34,2013-08-19 21:50:00,
2013-08-19 17:55:00,75.6,52.1,30.10,NNW,336,3.0,3.0,44,0.00,CLR,CLR,0.00,WeatherDisplay:10.34,2013-08-19 21:55:00,
2013-08-19 18:01:00,75.4,51.9,30.10,NNE,16,0.0,3.0,44,0.00,CLR,CLR,0.00,WeatherDisplay:10.34,2013-08-19 22:01:00,
2013-08-19 18:06:00,75.0,52.8,30.10,NE,56,0.0,3.0,46,0.00,CLR,CLR,0.00,WeatherDisplay:10.34,2013-08-19 22:06:00,
2013-08-19 18:11:00,74.7,50.7,30.10,North,6,4.0,7.0,43,0.00,CLR,CLR,0.00,WeatherDisplay:10.34,2013-08-19 22:11:00,
2013-08-19 18:17:00,74.8,50.8,30.10,North,4,0.0,5.0,43,0.00,CLR,CLR,0.00,WeatherDisplay:10.34,2013-08-19 22:17:00,
2013-08-19 18:22:00,74.7,50.7,30.10,WNW,292,0.0,0.0,43,0.00,CLR,CLR,0.00,WeatherDisplay:10.34,2013-08-19 22:22:00,
2013-08-19 18:27:00,74.3,51.0,30.10,WNW,295,3.0,3.0,44,0.00,CLR,CLR,0.00,WeatherDisplay:10.34,2013-08-19 22:27:00,
2013-08-19 18:32:00,73.9,51.3,30.10,WNW,295,0.0,0.0,45,0.00,CLR,CLR,0.00,WeatherDisplay:10.34,2013-08-19 22:32:00,
2013-08-19 18:37:00,73.4,51.9,30.10,WNW,295,0.0,0.0,47,0.00,CLR,CLR,0.00,WeatherDisplay:10.34,2013-08-19 22:37:00,
2013-08-19 18:42:00,72.7,53.5,30.10,WNW,295,0.0,0.0,51,0.00,CLR,CLR,0.00,WeatherDisplay:10.34,2013-08-19 22:42:00,
2013-08-19 18:47:00,72.1,54.1,30.10,WNW,295,0.0,0.0,53,0.00,CLR,CLR,0.00,WeatherDisplay:10.34,2013-08-19 22:47:00,
2013-08-19 18:52:00,72.0,53.9,30.10,WNW,297,0.0,5.0,53,0.00,CLR,CLR,0.00,WeatherDisplay:10.34,2013-08-19 22:52:00,
2013-08-19 18:57:00,71.8,53.7,30.10,West,274,3.0,0.0,53,0.00,CLR,CLR,0.00,WeatherDisplay:10.34,2013-08-19 22:57:00,
2013-08-19 19:02:00,71.4,54.4,30.10,West,273,0.0,3.0,55,0.00,CLR,CLR,0.00,WeatherDisplay:10.34,2013-08-19 23:02:00,
2013-08-19 19:07:00,71.1,54.1,30.10,West,273,0.0,0.0,55,0.00,CLR,CLR,0.00,WeatherDisplay:10.34,2013-08-19 23:07:00,
2013-08-19 19:12:00,70.9,54.9,30.10,North,5,0.0,3.0,57,0.00,CLR,CLR,0.00,WeatherDisplay:10.34,2013-08-19 23:12:00,
2013-08-19 19:17:00,70.9,54.4,30.10,North,5,0.0,0.0,56,0.00,CLR,CLR,0.00,WeatherDisplay:10.34,2013-08-19 23:17:00,
2013-08-19 19:22:00,70.5,54.5,30.10,North,5,0.0,0.0,57,0.00,CLR,CLR,0.00,WeatherDisplay:10.34,2013-08-19 23:22:00,
2013-08-19 19:27:00,70.2,54.7,30.10,North,5,0.0,0.0,58,0.00,CLR,CLR,0.00,WeatherDisplay:10.34,2013-08-19 23:27:00,
2013-08-19 19:32:00,70.0,55.5,30.10,North,5,0.0,0.0,60,0.00,CLR,CLR,0.00,WeatherDisplay:10.34,2013-08-19 23:32:00,
2013-08-19 19:37:00,69.6,55.6,30.13,North,5,0.0,0.0,61,0.00,CLR,CLR,0.00,WeatherDisplay:10.34,2013-08-19 23:37:00,
2013-08-19 19:42:00,69.3,55.2,30.13,North,5,0.0,0.0,61,0.00,CLR,CLR,0.00,WeatherDisplay:10.34,2013-08-19 23:42:00,
2013-08-19 19:47:00,68.9,55.3,30.10,North,5,0.0,0.0,62,0.00,CLR,CLR,0.00,WeatherDisplay:10.34,2013-08-19 23:47:00,
2013-08-19 19:52:00,68.7,55.6,30.10,WSW,258,0.0,3.0,63,0.00,CLR,CLR,0.00,WeatherDisplay:10.34,2013-08-19 23:52:00,
2013-08-19 19:57:00,68.5,55.4,30.10,WSW,258,0.0,0.0,63,0.00,CLR,CLR,0.00,WeatherDisplay:10.34,2013-08-19 23:57:00,
2013-08-19 20:02:00,68.4,55.3,30.10,WSW,258,0.0,0.0,63,0.00,CLR,CLR,0.00,WeatherDisplay:10.34,2013-08-20 00:02:00,
2013-08-19 20:07:00,68.2,55.5,30.13,WSW,258,0.0,0.0,64,0.00,CLR,CLR,0.00,WeatherDisplay:10.34,2013-08-20 00:07:00,
2013-08-19 20:12:00,68.0,55.4,30.13,WSW,258,0.0,0.0,64,0.00,CLR,CLR,0.00,WeatherDisplay:10.34,2013-08-20 00:12:00,
2013-08-19 20:17:00,67.6,55.5,30.13,WSW,258,0.0,0.0,65,0.00,CLR,CLR,0.00,WeatherDisplay:10.34,2013-08-20 00:17:00,
2013-08-19 20:22:00,67.6,55.5,30.13,West,259,0.0,0.0,65,0.00,CLR,CLR,0.00,WeatherDisplay:10.34,2013-08-20 00:22:00,
2013-08-19 20:27:00,67.5,55.3,30.13,WSW,258,0.0,0.0,65,0.00,CLR,CLR,0.00,WeatherDisplay:10.34,2013-08-20 00:27:00,
2013-08-19 20:32:00,67.3,55.5,30.13,WSW,258,0.0,0.0,66,0.00,CLR,CLR,0.00,WeatherDisplay:10.34,2013-08-20 00:32:00,
2013-08-19 20:37:00,67.3,55.1,30.13,WSW,258,0.0,0.0,65,0.00,CLR,CLR,0.00,WeatherDisplay:10.34,2013-08-20 00:37:00,
2013-08-19 20:42:00,67.1,55.4,30.13,WSW,258,0.0,0.0,66,0.00,CLR,CLR,0.00,WeatherDisplay:10.34,2013-08-20 00:42:00,
2013-08-19 20:47:00,66.9,55.6,30.13,WSW,258,0.0,0.0,67,0.00,CLR,CLR,0.00,WeatherDisplay:10.34,2013-08-20 00:47:00,
2013-08-19 20:52:00,66.7,55.4,30.13,West,259,0.0,0.0,67,0.00,CLR,CLR,0.00,WeatherDisplay:10.34,2013-08-20 00:52:00,
2013-08-19 20:57:00,66.7,55.4,30.13,West,259,0.0,0.0,67,0.00,CLR,CLR,0.00,WeatherDisplay:10.34,2013-08-20 00:57:00,
2013-08-19 21:02:00,66.7,55.4,30.13,West,259,0.0,0.0,67,0.00,CLR,CLR,0.00,WeatherDisplay:10.34,2013-08-20 01:02:00,
2013-08-19 21:07:00,66.6,55.3,30.13,North,351,3.0,3.0,67,0.00,CLR,CLR,0.00,WeatherDisplay:10.34,2013-08-20 01:07:00,
2013-08-19 21:12:00,66.6,55.7,30.13,North,351,0.0,3.0,68,0.00,CLR,CLR,0.00,WeatherDisplay:10.34,2013-08-20 01:12:00,
2013-08-19 21:17:00,66.6,55.7,30.13,North,351,3.0,3.0,68,0.00,CLR,CLR,0.00,WeatherDisplay:10.34,2013-08-20 01:17:00,
2013-08-19 21:22:00,66.6,55.7,30.13,North,10,4.0,6.0,68,0.00,CLR,CLR,0.00,WeatherDisplay:10.34,2013-08-20 01:22:00,
2013-08-19 21:27:00,66.9,55.6,30.13,North,5,3.0,7.0,67,0.00,CLR,CLR,0.00,WeatherDisplay:10.34,2013-08-20 01:27:00,
2013-08-19 21:32:00,67.1,54.9,30.13,North,0,0.0,2.0,65,0.00,CLR,CLR,0.00,WeatherDisplay:10.34,2013-08-20 01:32:00,
2013-08-19 21:37:00,67.1,54.9,30.13,North,0,0.0,3.0,65,0.00,CLR,CLR,0.00,WeatherDisplay:10.34,2013-08-20 01:37:00,
2013-08-19 21:42:00,67.1,54.9,30.13,North,4,0.0,0.0,65,0.00,CLR,CLR,0.00,WeatherDisplay:10.34,2013-08-20 01:42:00,
2013-08-19 21:47:00,67.1,54.5,30.13,North,351,0.0,0.0,64,0.00,CLR,CLR,0.00,WeatherDisplay:10.34,2013-08-20 01:47:00,
2013-08-19 21:52:00,67.1,54.5,30.13,North,5,0.0,3.0,64,0.00,CLR,CLR,0.00,WeatherDisplay:10.34,2013-08-20 01:52:00,
2013-08-19 21:57:00,67.1,54.5,30.13,North,4,0.0,2.0,64,0.00,CLR,CLR,0.00,WeatherDisplay:10.34,2013-08-20 01:57:00,
2013-08-19 22:02:00,66.9,54.3,30.13,NNW,343,0.0,3.0,64,0.00,CLR,CLR,0.00,WeatherDisplay:10.34,2013-08-20 02:02:00,
2013-08-19 22:07:00,66.9,54.3,30.13,North,351,0.0,3.0,64,0.00,CLR,CLR,0.00,WeatherDisplay:10.34,2013-08-20 02:07:00,
2013-08-19 22:12:00,66.7,54.2,30.13,North,351,0.0,0.0,64,0.00,CLR,CLR,0.00,WeatherDisplay:10.34,2013-08-20 02:12:00,
2013-08-19 22:17:00,66.6,54.0,30.13,North,351,0.0,0.0,64,0.00,CLR,CLR,0.00,WeatherDisplay:10.34,2013-08-20 02:17:00,
2013-08-19 22:22:00,66.4,53.8,30.13,North,351,0.0,0.0,64,0.00,CLR,CLR,0.00,WeatherDisplay:10.34,2013-08-20 02:22:00,
2013-08-19 22:27:00,66.4,54.3,30.13,North,351,0.0,0.0,65,0.00,CLR,CLR,0.00,WeatherDisplay:10.34,2013-08-20 02:27:00,
2013-08-19 22:32:00,66.2,54.1,30.13,NNW,347,0.0,0.0,65,0.00,CLR,CLR,0.00,WeatherDisplay:10.34,2013-08-20 02:32:00,
2013-08-19 22:37:00,66.0,53.9,30.13,NNW,347,0.0,0.0,65,0.00,CLR,CLR,0.00,WeatherDisplay:10.34,2013-08-20 02:37:00,
2013-08-19 22:42:00,66.0,53.9,30.13,NNW,347,0.0,0.0,65,0.00,CLR,CLR,0.00,WeatherDisplay:10.34,2013-08-20 02:42:00,
2013-08-19 22:47:00,65.8,53.7,30.13,NNW,347,0.0,0.0,65,0.00,CLR,CLR,0.00,WeatherDisplay:10.34,2013-08-20 02:47:00,
2013-08-19 22:52:00,65.7,54.0,30.13,North,351,0.0,0.0,66,0.00,CLR,CLR,0.00,WeatherDisplay:10.34,2013-08-20 02:52:00,
2013-08-19 22:57:00,65.7,54.0,30.13,NNW,347,0.0,0.0,66,0.00,CLR,CLR,0.00,WeatherDisplay:10.34,2013-08-20 02:57:00,
2013-08-19 23:02:00,65.7,54.4,30.13,NNW,347,0.0,0.0,67,0.00,CLR,CLR,0.00,WeatherDisplay:10.34,2013-08-20 03:02:00,
2013-08-19 23:07:00,65.7,54.4,30.13,NNW,346,0.0,0.0,67,0.00,CLR,CLR,0.00,WeatherDisplay:10.34,2013-08-20 03:07:00,
2013-08-19 23:12:00,65.5,54.6,30.13,North,351,0.0,0.0,68,0.00,CLR,CLR,0.00,WeatherDisplay:10.34,2013-08-20 03:12:00,
2013-08-19 23:17:00,65.5,54.6,30.12,North,351,0.0,0.0,68,0.00,CLR,CLR,0.00,WeatherDisplay:10.34,2013-08-20 03:17:00,
2013-08-19 23:22:00,65.3,54.9,30.12,North,351,0.0,0.0,69,0.00,CLR,CLR,0.00,WeatherDisplay:10.34,2013-08-20 03:22:00,
2013-08-19 23:27:00,65.3,54.9,30.12,NNW,346,0.0,0.0,69,0.00,CLR,CLR,0.00,WeatherDisplay:10.34,2013-08-20 03:27:00,
2013-08-19 23:32:00,65.3,55.3,30.12,NNW,347,0.0,0.0,70,0.00,CLR,CLR,0.00,WeatherDisplay:10.34,2013-08-20 03:32:00,
2013-08-19 23:37:00,65.1,55.5,30.12,North,351,0.0,0.0,71,0.00,CLR,CLR,0.00,WeatherDisplay:10.34,2013-08-20 03:37:00,
2013-08-19 23:42:00,65.1,55.5,30.12,NNW,347,0.0,0.0,71,0.00,CLR,CLR,0.00,WeatherDisplay:10.34,2013-08-20 03:42:00,
2013-08-19 23:47:00,65.1,55.5,30.12,NNW,347,0.0,0.0,71,0.00,CLR,CLR,0.00,WeatherDisplay:10.34,2013-08-20 03:47:00,
2013-08-19 23:52:00,64.9,54.9,30.12,NNW,347,0.0,0.0,70,0.00,CLR,CLR,0.00,WeatherDisplay:10.34,2013-08-20 03:52:00,
2013-08-19 23:57:00,64.9,54.9,30.12,NNW,347,0.0,0.0,70,0.00,CLR,CLR,0.00,WeatherDisplay:10.34,2013-08-20 03:57:00,